GFSFLT2_sfc_rhum_234.txt.gz
RH
79 79 84 94 94 94 93 92 92 93 93 93 93 92 92 91 91 88 84 79 74 70 73 84 85 89 90 90 90 90 94 70
75 74 74 81 87 95 93 93 93 93 93 94 93 92 91 90 91 89 85 80 74 71 70 78 88 90 91 91 92 93 94 71
69 66 69 73 75 83 92 92 92 94 94 94 97 80 82 86 82 88 86 82 78 74 72 72 86 89 90 91 92 84 69 62
65 65 68 71 64 80 80 78 81 84 83 90 82 80 76 67 80 87 86 83 80 78 76 74 74 63 86 94 91 71 54 59
59 71 72 69 70 76 70 73 75 77 80 83 81 79 87 76 80 75 85 84 75 76 75 68 55 52 66 75 70 63 62 60
49 64 78 80 77 74 69 70 73 75 81 85 87 92 90 82 73 74 72 74 72 68 67 63 62 61 57 58 56 64 66 67
51 67 78 82 84 81 83 78 79 77 80 82 88 89 88 82 79 81 79 72 72 75 69 70 64 60 59 58 56 57 61 70
54 69 76 79 82 84 84 81 80 81 83 80 82 85 89 75 83 76 80 78 74 71 69 74 77 78 66 62 55 60 61 68
56 67 78 80 81 82 82 76 80 83 80 85 85 82 82 76 86 87 86 84 74 80 80 82 83 77 77 71 72 69 65 68
50 54 77 81 82 82 78 75 76 77 79 83 83 80 76 83 89 91 89 86 81 82 83 80 80 86 87 88 85 80 80 84
51 58 76 82 82 80 80 77 77 82 81 81 81 81 81 87 90 89 85 82 84 82 88 88 84 84 87 91 89 84 84 74
50 60 72 82 79 79 79 84 86 86 85 82 82 79 78 82 84 86 81 78 78 79 83 84 87 92 84 92 93 94 90 92
50 67 76 83 86 87 87 88 90 87 82 79 77 76 79 84 86 83 74 76 83 84 86 88 92 91 95 96 97 94 92 90
48 66 76 81 82 81 84 83 84 82 79 79 76 79 79 80 81 69 76 80 86 86 87 91 89 87 93 94 93 92 91 84
46 56 72 80 80 83 91 86 86 86 84 82 81 78 80 80 76 77 78 83 87 84 80 81 88 83 84 92 94 90 84 88
48 49 59 78 80 83 87 87 87 82 81 79 82 82 81 77 75 77 79 79 79 78 76 83 84 90 88 84 91 93 89 87
54 50 54 75 82 81 84 83 80 79 82 83 87 86 82 78 78 74 75 76 72 74 77 82 86 87 90 92 92 95 94 98
67 67 56 81 83 82 84 86 85 86 87 89 92 87 84 76 68 75 77 78 77 81 84 85 87 88 89 91 94 95 96 98
74 72 76 83 86 86 87 86 86 82 84 89 84 79 78 76 74 79 80 79 80 82 84 85 86 90 90 89 89 91 91 93
82 81 79 79 86 86 88 87 87 85 85 85 76 67 68 74 76 76 75 75 78 80 84 87 87 90 91 91 87 85 88 90

GFSFLT2_sfc_rhum_237.txt.gz
RH
92 93 92 94 94 93 93 93 93 93 93 93 93 93 92 92 91 90 86 82 77 73 77 86 87 90 90 90 90 92 95 92
95 96 96 97 96 93 93 93 94 94 94 95 94 93 92 92 92 90 87 82 76 74 72 75 87 91 90 90 91 92 96 94
89 92 95 96 96 91 92 92 93 94 94 95 96 97 95 93 93 91 88 84 79 74 71 70 76 87 90 90 90 98 94 87
82 84 88 92 83 96 97 93 97 98 98 98 98 96 95 84 89 90 89 86 82 79 76 73 70 81 94 92 98 94 85 74
81 82 83 84 84 93 94 97 98 98 96 98 97 92 96 94 96 92 97 89 89 84 82 79 68 64 62 94 92 85 78 69
74 84 81 83 87 85 87 89 91 92 93 96 96 98 97 96 88 94 94 91 90 87 87 79 74 63 71 82 76 77 80 84
77 77 80 78 92 84 86 84 85 86 91 93 95 97 97 95 91 92 89 90 82 88 79 78 79 72 70 65 61 59 59 82
75 80 84 94 87 86 90 84 85 87 92 88 91 93 95 93 94 93 94 91 76 76 75 86 93 87 79 74 72 68 64 73
79 85 88 92 90 86 90 94 88 93 92 93 90 90 95 91 95 95 94 94 83 83 86 89 91 86 85 81 77 75 76 80
74 73 85 90 87 77 83 96 94 93 91 91 90 82 90 93 96 96 95 94 92 84 92 93 92 92 93 94 92 89 86 83
74 81 83 84 85 80 77 82 96 92 96 92 92 86 88 95 96 96 94 96 93 89 94 92 93 93 92 95 95 96 93 83
69 83 86 88 87 87 75 72 96 93 97 97 93 90 90 95 95 94 95 96 94 95 93 93 93 94 92 90 95 96 96 96
71 85 91 90 87 88 84 84 85 89 93 90 92 92 91 93 94 93 93 92 93 92 94 91 93 93 95 97 97 96 96 97
61 82 90 85 81 80 79 82 92 83 89 84 84 90 91 91 92 94 89 92 94 91 91 95 95 95 96 97 97 92 96 95
64 74 87 85 83 83 95 92 95 95 90 80 80 90 89 88 91 92 88 92 89 92 92 92 95 93 92 93 96 95 96 90
71 75 85 87 87 87 90 89 88 85 83 82 92 88 90 90 91 89 90 86 85 91 85 90 92 93 92 90 93 94 96 97
63 77 88 88 89 88 88 90 85 88 91 89 93 94 92 90 94 94 93 87 88 84 87 92 94 94 94 94 92 96 96 100
83 83 85 90 92 92 93 93 92 96 94 95 94 93 93 97 93 94 87 80 78 82 83 88 93 94 93 94 94 96 96 98
85 85 89 95 94 94 94 94 94 91 91 92 94 98 97 94 95 90 84 81 82 85 88 90 92 94 93 95 95 96 95 96
87 87 89 96 96 95 94 93 92 89 92 95 95 92 91 94 92 86 81 83 87 87 89 91 92 93 92 95 96 92 95 96

GFSFLT2_sfc_rhum_243.txt.gz
RH
98 97 96 96 96 95 95 94 94 94 93 94 94 92 92 92 91 89 86 83 80 81 83 84 85 88 89 89 89 90 94 95
91 93 98 98 97 96 95 94 94 94 94 94 94 93 92 93 92 90 86 82 78 75 73 78 82 86 88 88 89 91 95 94
96 92 92 99 98 95 94 93 94 94 94 94 96 98 97 95 94 90 86 84 80 75 70 68 72 78 82 86 89 97 95 97
98 93 93 99 93 97 97 95 97 97 97 97 99 98 98 96 94 91 89 87 84 81 76 74 69 72 78 86 96 94 94 93
98 98 98 98 95 98 99 99 99 99 98 98 99 98 99 98 99 98 98 92 97 92 90 88 80 75 66 67 86 93 96 91
94 97 98 97 94 98 97 99 99 99 98 99 99 100 99 99 99 98 99 98 97 96 97 89 86 79 70 67 79 87 94 89
87 90 93 93 96 96 98 98 98 97 99 98 99 99 99 99 99 98 99 98 98 97 95 90 90 85 84 82 83 81 76 78
80 84 84 86 90 92 92 94 95 98 98 98 98 98 98 98 99 98 99 98 98 95 93 94 94 93 86 79 79 82 82 85
83 83 82 86 86 90 90 91 92 94 95 97 96 97 97 96 98 98 97 97 96 97 95 96 97 94 88 87 88 87 85 85
84 78 82 85 85 88 87 88 90 90 92 95 95 95 96 96 98 97 96 98 98 97 97 98 98 98 97 97 96 94 92 92
84 83 84 85 84 87 91 92 94 91 93 94 94 94 95 96 97 96 97 97 98 94 98 96 98 97 96 96 95 96 95 94
80 82 84 86 86 91 93 96 96 94 96 95 94 95 95 97 96 96 96 97 98 98 96 97 95 94 95 96 97 97 97 97
77 84 84 89 92 94 93 95 94 95 96 94 95 95 95 96 95 96 96 96 93 95 97 96 96 96 96 95 95 95 96 97
71 80 85 89 86 88 88 88 91 94 95 97 95 95 95 96 96 96 94 96 96 96 93 98 96 97 95 96 88 72 90 94
69 77 84 89 86 89 97 97 97 97 98 98 97 94 93 94 94 93 94 95 95 96 95 94 97 98 92 83 94 85 94 94
67 73 82 91 90 92 91 86 90 83 86 92 97 95 94 93 92 93 93 95 95 96 97 96 96 97 99 95 90 84 95 95
75 85 93 93 95 93 93 92 94 96 97 96 96 98 95 94 94 94 95 97 97 98 99 98 98 99 99 97 97 98 97 98
97 98 98 98 96 96 95 94 96 98 98 98 98 96 95 94 93 93 94 95 98 97 97 97 99 100 99 96 92 94 96 97
97 96 98 97 96 94 94 94 96 96 96 96 97 96 96 95 92 93 94 96 97 98 97 95 98 98 95 95 95 95 95 96
96 96 94 96 96 96 95 95 97 96 95 96 96 95 93 91 93 95 96 98 97 96 97 99 99 96 95 97 97 97 97 97

GFSFLT2_sfc_rhum_246.txt.gz
RH
98 97 95 95 95 95 94 93 93 93 93 93 94 93 93 91 90 89 87 85 84 83 83 83 84 86 87 88 89 89 91 89
90 95 97 97 96 96 94 94 94 94 93 94 95 93 93 92 91 89 85 82 79 77 78 81 83 84 86 87 89 91 92 90
86 88 94 99 98 96 94 93 94 94 93 94 96 98 96 94 93 90 86 83 79 75 72 68 72 77 80 84 88 91 90 92
88 86 88 97 98 98 98 97 97 97 97 98 99 98 98 96 94 90 88 86 83 80 77 73 73 72 73 82 92 89 88 88
88 88 88 95 98 99 99 99 99 99 98 98 99 99 99 99 99 98 98 92 96 92 90 89 83 78 71 69 76 87 90 87
95 90 92 98 98 98 98 99 99 99 99 98 100 100 99 99 99 98 98 98 98 96 96 91 88 83 75 71 72 81 89 83
95 98 98 98 98 98 98 98 98 97 99 98 99 99 99 99 99 99 98 98 99 98 96 92 89 85 82 80 81 82 78 76
88 94 95 96 96 96 97 98 98 98 98 98 98 98 98 98 99 98 99 99 98 97 95 93 92 91 90 84 80 81 81 82
86 89 91 95 95 96 97 98 97 98 98 98 96 98 98 97 98 98 98 99 98 97 95 95 96 94 92 87 85 83 84 83
82 78 86 90 90 92 94 98 98 97 97 97 96 96 96 97 98 97 98 99 98 98 97 98 98 98 96 96 94 93 91 91
85 85 86 88 87 87 94 95 95 92 95 94 95 95 96 95 97 96 98 98 99 98 99 97 98 98 98 97 96 95 93 92
84 89 87 88 88 91 98 97 96 92 94 92 92 93 94 97 95 96 98 98 98 99 98 99 97 96 95 93 96 96 96 95
86 92 90 92 91 95 94 94 88 89 89 93 94 94 95 96 95 96 98 98 96 97 98 98 99 97 96 96 93 93 93 94
81 84 88 90 86 85 84 84 83 82 84 87 93 95 96 96 95 94 97 98 98 98 98 96 94 96 96 94 93 79 83 88
75 80 82 86 83 87 98 97 98 96 92 89 88 93 95 96 95 95 97 98 97 97 96 94 96 98 94 94 94 92 86 85
62 72 79 86 87 91 90 88 92 89 91 92 89 93 95 95 96 97 97 98 97 96 97 96 97 97 100 99 97 93 95 90
70 80 89 93 91 90 92 93 89 96 97 97 98 98 96 96 96 96 97 97 96 96 99 99 99 98 97 99 99 100 99 98
94 95 98 98 93 95 96 95 96 98 98 98 98 97 97 97 96 96 95 96 97 97 96 98 97 96 97 98 98 98 99 99
97 94 96 98 97 96 96 94 95 96 95 95 96 97 98 97 97 96 96 94 96 97 98 98 96 98 98 98 96 94 94 95
97 97 95 98 96 96 95 94 95 94 93 94 94 94 94 93 96 95 94 95 98 98 99 98 98 98 98 97 95 89 95 95

GFSFLT2_sfc_rhum_249.txt.gz
RH
81 76 79 95 95 94 93 92 92 92 92 92 92 92 92 90 90 90 88 86 83 81 80 80 80 82 84 84 85 86 52 45
80 78 73 74 75 94 93 93 93 93 92 93 94 93 92 91 90 89 87 84 83 82 82 80 79 80 81 84 87 88 50 52
77 74 73 74 72 77 91 92 92 93 89 93 92 64 68 72 77 88 86 83 81 78 73 69 70 76 79 83 85 50 52 50
74 77 76 77 68 72 73 69 65 68 70 73 69 73 68 65 75 90 88 85 82 78 74 70 63 40 40 66 50 57 54 50
79 80 80 80 71 70 67 67 69 70 75 75 75 74 76 68 67 65 66 78 61 65 61 51 53 49 43 47 51 58 49 48
76 78 82 84 73 72 68 69 71 68 70 80 80 82 82 74 66 64 68 60 67 66 58 62 62 59 55 53 53 53 50 48
74 80 83 84 86 72 72 74 72 66 70 76 79 79 79 70 68 66 64 63 65 68 64 60 60 59 58 57 56 60 60 50
71 78 85 84 85 79 75 74 71 71 69 69 79 72 77 69 70 67 67 65 61 65 63 59 57 59 62 61 61 58 58 60
68 73 78 81 79 76 74 72 72 70 68 75 76 76 78 74 73 75 70 74 71 70 71 67 61 59 63 62 60 59 56 60
64 63 70 78 76 73 70 70 72 69 68 69 77 76 75 78 77 77 76 72 70 70 69 69 66 62 64 63 61 62 66 68
64 69 69 73 75 71 74 75 73 68 68 67 72 74 76 76 76 76 76 73 72 71 72 74 69 67 65 64 65 65 67 62
63 67 71 74 71 74 69 70 71 68 68 67 71 70 74 75 70 74 74 71 70 72 77 73 72 69 69 69 72 74 81 83
64 70 74 74 72 73 71 73 70 70 68 70 72 72 74 76 70 72 76 74 74 78 76 82 78 77 85 82 85 87 89 94
63 66 71 73 66 68 65 68 67 67 66 71 73 75 75 74 75 73 78 84 84 83 85 81 78 76 87 90 97 83 91 94
62 64 67 72 68 67 73 73 73 75 71 70 71 79 86 84 83 83 84 90 90 90 90 90 88 88 90 93 98 95 93 95
55 59 65 70 72 71 77 70 72 68 68 70 72 83 88 89 90 89 90 91 94 92 93 94 94 96 99 95 92 92 98 98
52 58 64 69 74 72 76 76 70 67 75 81 81 86 87 89 91 89 91 94 95 94 94 97 96 96 98 98 98 99 96 96
58 58 64 72 78 79 80 83 81 84 85 87 87 86 89 90 91 93 92 94 96 95 94 96 96 97 97 94 93 96 96 98
74 69 73 79 81 81 82 84 84 84 81 82 81 82 87 89 90 91 90 91 93 93 95 97 97 98 97 97 93 94 96 91
79 78 73 78 82 82 82 84 83 80 79 77 79 78 76 78 84 86 84 86 90 94 97 98 98 98 97 96 95 93 92 85

GFSFLT2_sfc_rhum_255.txt.gz
RH
55 58 69 94 93 93 93 92 92 92 92 92 91 91 90 89 89 89 88 87 86 87 87 86 82 79 78 79 79 80 48 30
53 53 51 55 58 94 94 92 92 92 91 92 92 90 89 89 90 89 89 87 83 82 81 80 80 82 83 83 83 82 42 29
48 45 47 50 48 59 90 91 91 92 87 91 90 50 55 57 65 84 89 87 85 83 82 83 83 82 83 82 84 37 32 30
41 45 44 47 38 48 56 52 54 57 55 60 54 49 43 39 54 87 87 86 85 84 84 82 76 37 43 74 42 35 34 32
36 49 51 47 42 39 44 44 48 48 53 54 55 44 46 42 42 51 56 76 50 61 57 48 41 34 28 39 35 36 36 31
33 37 50 55 40 39 39 41 45 45 47 60 55 50 52 49 41 44 48 41 47 41 40 45 43 39 39 37 37 36 32 31
33 35 50 53 59 41 42 44 41 44 44 52 51 47 54 48 45 40 40 39 41 43 41 40 44 44 42 41 39 41 41 34
33 34 47 50 56 58 48 47 42 44 42 45 60 52 54 47 49 43 42 39 38 39 41 41 42 43 42 43 41 40 41 43
34 38 45 55 57 54 50 43 44 42 44 53 53 59 57 55 48 48 44 44 48 44 44 44 42 40 41 39 43 44 41 41
26 33 40 55 58 53 48 44 45 44 42 45 56 57 59 58 49 48 46 47 44 46 46 46 45 44 44 40 41 43 46 45
25 39 42 51 58 52 54 53 48 43 43 42 50 54 57 59 50 50 54 48 50 48 49 52 50 58 47 42 43 43 51 49
26 35 46 52 52 56 46 45 45 44 43 42 48 47 56 59 53 54 53 50 51 51 57 50 52 55 54 54 60 61 64 68
24 35 46 48 48 51 51 47 44 44 43 46 47 48 54 60 54 55 56 55 57 60 60 65 58 61 67 66 59 64 70 76
25 30 38 44 44 46 45 46 41 40 40 46 46 50 54 54 60 55 55 54 62 63 65 61 63 62 73 80 86 76 85 83
25 28 34 42 47 45 47 47 46 43 42 42 46 51 54 59 58 60 59 58 57 67 68 70 68 67 73 83 98 98 79 86
22 26 31 37 46 48 54 48 48 43 44 39 41 51 55 56 63 62 65 59 63 63 64 70 74 74 82 82 80 77 84 96
27 24 26 34 39 50 52 56 51 47 46 49 51 53 55 59 64 68 69 65 68 70 73 79 73 77 81 93 98 98 98 98
35 33 31 34 42 48 58 64 60 58 56 56 54 53 56 62 66 71 72 74 75 77 81 85 87 88 88 94 95 97 98 98
38 36 38 40 46 50 56 61 64 65 64 60 59 56 57 62 76 85 84 83 84 84 86 90 91 94 94 96 96 93 91 94
33 29 30 37 44 48 52 54 54 55 56 58 57 56 55 58 73 81 84 87 89 89 92 93 95 97 96 96 98 94 94 94

GFSFLT2_sfc_rhum_258.txt.gz
RH
72 75 82 93 94 94 94 93 93 93 94 94 94 93 93 91 90 90 90 90 90 89 89 88 87 86 85 83 80 80 82 54
69 70 69 78 84 95 94 93 93 94 93 94 94 92 91 90 90 91 90 90 90 89 88 86 85 82 82 82 83 83 82 52
62 60 62 66 65 80 93 92 92 93 92 92 96 81 78 75 81 84 90 90 88 86 84 83 82 83 84 84 84 71 53 48
54 57 58 61 46 66 80 76 80 82 78 82 84 78 69 56 67 83 88 89 88 86 84 84 84 69 69 84 77 58 48 45
46 60 62 58 53 58 63 63 68 71 73 74 78 66 69 63 70 70 85 88 79 81 81 78 67 61 49 62 58 53 48 53
42 51 61 64 52 51 59 57 62 64 66 73 72 72 70 73 63 68 73 68 74 67 66 65 63 57 52 60 55 52 56 55
42 48 60 63 68 55 57 61 59 61 63 67 67 69 73 71 70 66 64 61 65 62 59 58 59 56 56 58 57 56 56 61
43 42 61 60 65 70 62 69 60 62 60 62 69 69 72 70 71 69 64 63 58 60 58 61 64 61 62 60 59 57 58 59
45 48 61 65 67 65 67 58 59 59 58 69 69 70 72 72 71 68 69 69 68 68 68 68 67 58 57 64 58 61 59 61
39 36 51 66 67 66 62 62 60 57 61 61 71 70 71 73 70 69 66 73 69 69 70 70 70 65 66 67 62 58 58 57
39 46 49 63 68 65 69 68 66 59 59 61 65 67 70 72 68 67 77 66 71 70 68 70 70 69 66 66 65 62 61 52
39 48 53 63 65 70 67 67 64 61 60 56 66 62 66 72 69 72 69 68 67 69 73 74 70 68 59 54 62 75 76 80
37 49 57 59 64 70 70 69 64 62 57 61 60 62 68 70 69 70 72 67 68 72 74 74 71 77 68 70 74 79 80 84
40 46 55 54 56 61 66 66 62 58 57 58 62 63 65 67 71 70 69 69 73 72 74 74 72 72 76 90 91 88 84 91
35 40 51 55 55 58 62 67 65 61 59 58 59 61 64 66 70 70 71 71 71 72 74 75 76 75 77 86 98 97 95 97
41 38 44 52 58 57 63 60 62 58 61 59 55 62 61 63 68 69 74 72 73 74 73 76 79 80 90 79 80 92 98 99
42 40 36 53 57 61 65 69 67 64 66 66 71 70 67 64 68 74 78 76 75 76 80 83 81 82 82 91 91 91 94 98
52 43 37 45 56 68 71 74 74 75 74 77 77 76 79 76 72 74 78 83 77 79 79 83 82 87 88 90 94 99 99 99
53 52 54 53 57 61 66 74 77 79 78 77 77 76 78 79 83 84 80 82 83 83 88 90 90 93 92 90 92 98 96 96
51 50 56 56 58 62 65 67 74 74 74 72 73 74 74 76 80 83 85 86 90 93 95 94 94 96 94 96 95 96 97 96